Total_Precipitation_Accumulation
0.25 0.24 0.20 0.19 0.16 0.13 0.13 0.15 0.34 0.63 0.87 1.19 1.37 1.31 1.31 1.29 1.05 0.82 0.71 0.69 0.70 0.69 0.62 0.54 0.51 0.48 0.43 0.40 0.36 0.33 0.32 0.32 0.31 0.30 0.30 0.32 0.33 0.33 0.33 0.31 0.28 0.25 0.21 0.17
0.21 0.17 0.20 0.24 0.23 0.23 0.28 0.31 0.41 0.71 1.06 1.48 1.58 1.45 1.39 1.35 1.19 1.01 0.93 0.92 0.89 0.82 0.74 0.70 0.67 0.63 0.57 0.51 0.48 0.46 0.45 0.45 0.45 0.43 0.42 0.40 0.36 0.31 0.27 0.22 0.16 0.12 0.09 0.07
0.32 0.21 0.28 0.46 0.35 0.29 0.35 0.41 0.56 0.83 1.06 1.24 1.34 1.40 1.44 1.50 1.44 1.24 1.11 1.06 1.05 1.02 0.94 0.86 0.81 0.77 0.73 0.66 0.60 0.57 0.56 0.55 0.54 0.49 0.43 0.34 0.25 0.18 0.14 0.11 0.09 0.07 0.05 0.03
0.29 0.32 0.60 0.52 0.23 0.25 0.37 0.41 0.52 0.62 0.74 0.91 0.98 1.08 1.15 1.23 1.24 1.19 1.08 1.06 1.05 1.04 1.02 0.98 0.89 0.80 0.76 0.70 0.64 0.60 0.58 0.53 0.48 0.39 0.30 0.22 0.15 0.12 0.10 0.09 0.07 0.05 0.04 0.04
0.26 0.41 0.52 0.44 0.21 0.19 0.39 0.60 0.55 0.55 0.52 0.56 0.60 0.66 0.89 1.02 1.04 1.09 1.15 1.18 1.13 1.07 0.98 0.92 0.85 0.77 0.73 0.71 0.65 0.58 0.51 0.40 0.30 0.22 0.16 0.12 0.10 0.10 0.09 0.08 0.06 0.05 0.04 0.05
0.26 0.45 0.58 0.54 0.21 0.12 0.31 0.82 0.77 0.67 0.61 0.62 0.70 0.76 0.80 0.85 0.86 0.93 0.99 1.00 0.93 0.83 0.73 0.67 0.66 0.63 0.58 0.54 0.47 0.38 0.29 0.21 0.16 0.14 0.11 0.09 0.08 0.08 0.07 0.07 0.06 0.05 0.04 0.05
0.29 0.44 0.53 0.23 0.09 0.18 0.55 0.86 0.83 0.71 0.62 0.64 0.80 0.79 0.62 0.60 0.65 0.69 0.74 0.72 0.66 0.61 0.58 0.54 0.49 0.43 0.37 0.31 0.27 0.20 0.16 0.14 0.12 0.10 0.08 0.07 0.07 0.06 0.06 0.06 0.08 0.08 0.08 0.08
0.33 0.49 0.56 0.18 0.12 0.30 0.45 0.47 0.57 0.57 0.54 0.53 0.49 0.40 0.37 0.38 0.41 0.44 0.46 0.46 0.42 0.41 0.38 0.34 0.30 0.26 0.24 0.20 0.15 0.11 0.11 0.12 0.11 0.08 0.04 0.05 0.08 0.08 0.07 0.09 0.11 0.11 0.12 0.11
0.30 0.44 0.37 0.18 0.16 0.22 0.29 0.42 0.40 0.37 0.33 0.26 0.23 0.21 0.22 0.24 0.26 0.28 0.28 0.30 0.30 0.26 0.23 0.23 0.22 0.21 0.19 0.15 0.12 0.10 0.11 0.12 0.10 0.07 0.06 0.05 0.07 0.08 0.09 0.10 0.09 0.08 0.09 0.10
0.10 0.19 0.19 0.17 0.17 0.17 0.19 0.25 0.23 0.22 0.21 0.16 0.15 0.18 0.20 0.22 0.21 0.21 0.23 0.23 0.23 0.21 0.20 0.20 0.19 0.19 0.18 0.14 0.14 0.16 0.18 0.14 0.11 0.10 0.08 0.07 0.08 0.07 0.07 0.09 0.07 0.07 0.09 0.09
0.09 0.15 0.20 0.25 0.17 0.13 0.13 0.14 0.15 0.17 0.16 0.13 0.10 0.13 0.16 0.19 0.20 0.21 0.21 0.21 0.20 0.22 0.20 0.16 0.15 0.15 0.13 0.14 0.16 0.21 0.21 0.15 0.11 0.09 0.09 0.10 0.10 0.06 0.04 0.05 0.02 0.03 0.05 0.05
0.13 0.14 0.21 0.28 0.19 0.12 0.16 0.17 0.17 0.15 0.13 0.13 0.10 0.10 0.13 0.16 0.20 0.20 0.17 0.16 0.19 0.19 0.15 0.13 0.12 0.12 0.11 0.12 0.14 0.18 0.20 0.14 0.08 0.06 0.07 0.07 0.10 0.11 0.04 0.01 0.00 0.00 0.00 0.01
0.06 0.06 0.10 0.11 0.10 0.10 0.13 0.17 0.19 0.18 0.15 0.13 0.13 0.13 0.14 0.16 0.15 0.16 0.14 0.14 0.15 0.13 0.10 0.08 0.08 0.09 0.09 0.09 0.09 0.12 0.14 0.09 0.05 0.04 0.05 0.07 0.09 0.15 0.17 0.08 0.01 0.01 0.01 0.01
0.02 0.03 0.06 0.09 0.12 0.12 0.15 0.18 0.18 0.16 0.17 0.19 0.17 0.14 0.12 0.11 0.11 0.12 0.11 0.09 0.07 0.06 0.06 0.06 0.06 0.05 0.04 0.05 0.07 0.07 0.06 0.03 0.03 0.04 0.04 0.05 0.05 0.07 0.12 0.16 0.16 0.10 0.04 0.02
0.02 0.04 0.08 0.13 0.18 0.17 0.18 0.20 0.19 0.15 0.15 0.17 0.13 0.10 0.08 0.07 0.08 0.07 0.06 0.05 0.05 0.05 0.04 0.04 0.04 0.04 0.02 0.03 0.04 0.04 0.04 0.04 0.04 0.03 0.02 0.03 0.03 0.03 0.04 0.07 0.14 0.17 0.13 0.06
0.04 0.05 0.08 0.14 0.21 0.21 0.22 0.23 0.18 0.14 0.10 0.08 0.07 0.06 0.05 0.04 0.04 0.04 0.04 0.04 0.05 0.05 0.05 0.05 0.05 0.04 0.02 0.02 0.03 0.03 0.03 0.02 0.02 0.01 0.01 0.01 0.02 0.01 0.02 0.04 0.08 0.12 0.12 0.07
0.06 0.07 0.08 0.11 0.15 0.17 0.15 0.11 0.08 0.06 0.05 0.04 0.04 0.03 0.02 0.03 0.03 0.03 0.02 0.02 0.03 0.04 0.04 0.03 0.03 0.02 0.01 0.00 0.02 0.02 0.02 0.01 0.00 0.00 0.00 0.01 0.01 0.01 0.01 0.02 0.05 0.07 0.06 0.04
0.10 0.09 0.08 0.08 0.09 0.09 0.06 0.04 0.03 0.03 0.02 0.01 0.01 0.01 0.02 0.02 0.02 0.01 0.01 0.01 0.01 0.02 0.02 0.01 0.01 0.01 0.00 0.00 0.00 0.01 0.01 0.00 0.00 0.00 0.00 0.00 0.01 0.01 0.01 0.02 0.03 0.04 0.05 0.05
0.06 0.04 0.04 0.04 0.03 0.03 0.02 0.02 0.02 0.01 0.00 0.00 0.00 0.01 0.01 0.01 0.00 0.00 0.00 0.00 0.01 0.01 0.01 0.00 0.00 0.00 0.00 0.00 0.00 0.00 0.00 0.00 0.00 0.00 0.00 0.00 0.00 0.00 0.00 0.01 0.02 0.03 0.04 0.05
0.01 0.01 0.01 0.02 0.01 0.01 0.01 0.01 0.00 0.00 0.00 0.00 0.00 0.00 0.00 0.00 0.00 0.00 0.00 0.00 0.00 0.00 0.00 0.00 0.00 0.00 0.00 0.00 0.00 0.00 0.00 0.00 0.00 0.00 0.00 0.00 0.00 0.00 0.00 0.00 0.01 0.02 0.03 0.04
0.01 0.01 0.01 0.01 0.01 0.00 0.00 0.00 0.00 0.00 0.00 0.00 0.00 0.00 0.00 0.00 0.00 0.00 0.00 0.00 0.00 0.00 0.00 0.00 0.00 0.00 0.00 0.00 0.00 0.00 0.00 0.00 0.00 0.00 0.00 0.00 0.00 0.00 0.00 0.00 0.01 0.01 0.02 0.03
0.01 0.00 0.00 0.00 0.00 0.00 0.00 0.00 0.00 0.00 0.00 0.00 0.00 0.00 0.00 0.00 0.00 0.00 0.00 0.00 0.00 0.00 0.00 0.00 0.00 0.00 0.00 0.00 0.00 0.00 0.00 0.00 0.00 0.00 0.00 0.00 0.00 0.00 0.01 0.01 0.01 0.01 0.02 0.03
0.02 0.01 0.00 0.00 0.00 0.00 0.00 0.00 0.00 0.00 0.00 0.00 0.00 0.00 0.00 0.00 0.00 0.00 0.00 0.00 0.00 0.00 0.00 0.00 0.00 0.00 0.00 0.00 0.00 0.00 0.00 0.00 0.00 0.00 0.00 0.00 0.00 0.00 0.00 0.00 0.00 0.01 0.01 0.01
0.05 0.02 0.00 0.00 0.00 0.00 0.00 0.00 0.00 0.00 0.00 0.00 0.00 0.00 0.00 0.00 0.00 0.00 0.00 0.00 0.00 0.00 0.00 0.00 0.00 0.00 0.00 0.00 0.00 0.00 0.00 0.00 0.00 0.00 0.00 0.00 0.00 0.00 0.00 0.00 0.00 0.00 0.00 0.00
0.04 0.02 0.01 0.00 0.00 0.00 0.00 0.00 0.00 0.00 0.00 0.00 0.00 0.00 0.00 0.00 0.00 0.00 0.00 0.00 0.00 0.00 0.00 0.00 0.00 0.00 0.00 0.00 0.00 0.00 0.00 0.00 0.00 0.00 0.00 0.00 0.00 0.00 0.00 0.00 0.00 0.00 0.00 0.00
0.08 0.06 0.02 0.01 0.01 0.00 0.00 0.00 0.00 0.00 0.00 0.00 0.00 0.00 0.00 0.00 0.00 0.00 0.00 0.00 0.00 0.00 0.00 0.00 0.00 0.00 0.00 0.00 0.00 0.00 0.00 0.00 0.00 0.00 0.00 0.00 0.00 0.00 0.00 0.00 0.00 0.00 0.00 0.00
0.15 0.12 0.06 0.05 0.05 0.01 0.00 0.00 0.00 0.00 0.00 0.00 0.00 0.00 0.00 0.00 0.00 0.00 0.00 0.00 0.00 0.00 0.00 0.00 0.00 0.00 0.00 0.00 0.00 0.00 0.00 0.00 0.00 0.00 0.00 0.00 0.00 0.00 0.00 0.00 0.00 0.00 0.00 0.00